Fort Wayne, IN

7:48 PM EST on November 11, 2019 (GMT -0500)
Fort Wayne International

Weather History for KFWA - September, 2019

Change the Weather History Date:

Saturday, September 14, 2019

  Actual Average Record
Temperature  
Mean Temperature 67 °F 65 °F  
Max Temperature 78 °F 77 °F 98 °F (1939)
Min Temperature 55 °F 53 °F 31 °F (1902)
Degree Days  
Heating Degree Days 0 3  
Month to date heating degree days 10 22  
Since 1 July heating degree days 11 34  
Cooling Degree Days 2 3  
Month to date cooling degree days 62 56  
Year to date cooling degree days 900 773  
Growing Degree Days 16 (Base 50)    
Moisture  
Dew Point 58 °F    
Average Humidity 75    
Maximum Humidity 100    
Minimum Humidity 50    
Precipitation  
Precipitation 0.00 in 0.10 in 1.08 in (1966)
Month to date precipitation 0.82 1.33  
Year to date precipitation 29.09 28.17  
Sea Level Pressure  
Sea Level Pressure 30.20 in    
Wind  
Wind Speed 6 mph (WSW)    
Max Wind Speed 14 mph    
Max Gust Speed 20 mph    
Visibility 10 miles    
Events      
T = Trace of Precipitation, MM = Missing Value Source: NWS Daily Summary

Daily Weather History Graph

Daily Weather History Graph

Search for Another Location

Airport or City:

Astronomy

Sep. 14, 2019 Rise Set
Actual Time 7:20 AM EDT 7:51 PM EDT
Civil Twilight 6:52 AM EDT 8:19 PM EDT
Nautical Twilight 6:19 AM EDT 8:52 PM EDT
Astronomical Twilight 5:46 AM EDT 9:25 PM EDT
Moon 8:32 PM EDT (9/14) 7:32 AM EDT (9/14)
Length of Visible Light 13h 27m
Length of Day
12h 31m
Full, 100% of the Moon is Illuminated
Sep 14
Full
Sep 21
Last Quarter
Sep 28
New
Oct 5
First Quarter
Oct 13
Full

Hourly Weather History & Observations

Time (EDT) Temp. Dew Point Humidity Pressure Visibility Wind Dir Wind Speed Gust Speed Precip Events Conditions
12:54 AM 63.0 °F 59.0 °F 87% 30.14 in 10.0 mi West 4.6 mph - N/A   Scattered Clouds
1:54 AM 60.1 °F 57.0 °F 90% 30.15 in 10.0 mi West 5.8 mph - N/A   Scattered Clouds
2:54 AM 57.9 °F 55.9 °F 93% 30.16 in 10.0 mi WSW 4.6 mph - N/A   Scattered Clouds
3:54 AM 57.0 °F 55.9 °F 96% 30.17 in 10.0 mi SW 4.6 mph - N/A   Partly Cloudy
4:54 AM 57.0 °F 55.0 °F 93% 30.18 in 10.0 mi WSW 5.8 mph - N/A   Partly Cloudy
5:54 AM 57.0 °F 55.9 °F 96% 30.19 in 10.0 mi WSW 5.8 mph - N/A   Partly Cloudy
6:54 AM 55.9 °F 55.0 °F 97% 30.20 in 10.0 mi WSW 5.8 mph - N/A   Partly Cloudy
7:54 AM 57.0 °F 55.0 °F 93% 30.22 in 10.0 mi WSW 4.6 mph - N/A   Scattered Clouds
8:54 AM 61.0 °F 57.9 °F 90% 30.25 in 10.0 mi WSW 4.6 mph - N/A   Partly Cloudy
9:54 AM 64.9 °F 57.9 °F 78% 30.26 in 10.0 mi WSW 9.2 mph - N/A   Partly Cloudy
10:54 AM 69.1 °F 57.9 °F 68% 30.26 in 10.0 mi West 9.2 mph - N/A   Partly Cloudy
11:54 AM 72.0 °F 57.0 °F 59% 30.25 in 10.0 mi West 11.5 mph - N/A   Partly Cloudy
12:54 PM 73.9 °F 57.9 °F 57% 30.24 in 10.0 mi WNW 10.4 mph - N/A   Scattered Clouds
1:54 PM 75.9 °F 59.0 °F 56% 30.23 in 10.0 mi West 12.7 mph - N/A   Mostly Cloudy
2:54 PM 75.9 °F 57.0 °F 52% 30.22 in 10.0 mi West 6.9 mph - N/A   Mostly Cloudy
3:54 PM 77.0 °F 57.9 °F 52% 30.20 in 10.0 mi WNW 5.8 mph - N/A   Mostly Cloudy
4:54 PM 78.1 °F 59.0 °F 52% 30.19 in 10.0 mi Variable 5.8 mph - N/A   Scattered Clouds
5:54 PM 77.0 °F 60.1 °F 56% 30.19 in 10.0 mi West 8.1 mph - N/A   Partly Cloudy
6:54 PM 75.0 °F 60.1 °F 60% 30.18 in 10.0 mi WSW 5.8 mph - N/A   Partly Cloudy
7:54 PM 69.1 °F 63.0 °F 81% 30.19 in 10.0 mi SSW 4.6 mph - N/A   Partly Cloudy
8:54 PM 68.0 °F 62.1 °F 81% 30.19 in 10.0 mi South 4.6 mph - N/A   Partly Cloudy
9:54 PM 64.9 °F 61.0 °F 87% 30.20 in 10.0 mi South 3.5 mph - N/A   Clear
10:54 PM 63.0 °F 60.1 °F 90% 30.21 in 10.0 mi SSW 3.5 mph - N/A   Partly Cloudy
11:54 PM 63.0 °F 59.0 °F 87% 30.21 in 10.0 mi SSW 4.6 mph - N/A   Scattered Clouds